Regional Weather Roundup
Issued by NWS

Home | Current Version | Previous Version | Text Only | Print | Product List | Glossary On
Versions: 1 2 3 4 5 6 7 8 9 10 11 12 13 14 15 16 17 18 19 20 21 22 23 24 25 26 27 28 29 30 31 32 33 34 35 36 37 38 39 40 41 42 43 44 45 46 47 48 49 50
000
ASUS43 KTOP 011359
RWRKS

WEATHER ROUNDUP FOR KANSAS
NATIONAL WEATHER SERVICE GOODLAND KS
800 AM CST SUN FEB 01 2015

NOTE:  "FAIR" INDICATES FEW OR NO CLOUDS BELOW 12,000 FEET WITH NO
SIGNIFICANT WEATHER AND/OR OBSTRUCTIONS TO VISIBILITY.

KSZ001>006-013>018-027>032-041>047-011500-
NORTHWEST KANSAS

CITY           SKY/WX    TMP DP  RH WIND       PRES   REMARKS
GOODLAND       CLOUDY    17  12  80 N24G37    30.11R WCI  -1
HAYS           CLOUDY    18   7  62 NW18G40   30.07R WCI   2
HILL CITY      CLOUDY    17  10  74 NW24G37   30.12R WCI  -1
RUSSELL        FLURRIES  18  14  84 N26G41    30.04R WCI  -1
$$

KSZ061>065-074>080-084>089-011500-
SOUTHWEST KANSAS

CITY           SKY/WX    TMP DP  RH WIND       PRES   REMARKS
DODGE CITY     PTCLDY    21  14  74 N21G33    30.05R WCI   5
ELKHART          N/A     27  16  63 N15         N/A  WCI  15
GARDEN CITY    PTCLDY    21  15  78 N24G35    30.07R WCI   4
LIBERAL        CLEAR     27  19  74 N21G30    30.08R WCI  13
$$

KSZ066>073-081>083-090>101-011500-
SOUTHEAST KANSAS

CITY           SKY/WX    TMP DP  RH WIND       PRES   REMARKS
CHANUTE        LGT RAIN  42  40  92 NW25G31   29.75R
COFFEYVILLE    LGT RAIN  44  42  93 W15       29.76R
HUTCHINSON     CLOUDY    26  19  74 NW30G40   29.95R WCI  10
MEDICINE LODGE   N/A     27  21  78 N28G41    30.00R WCI  11
NEWTON         CLOUDY    27  19  74 NW29G40   29.90R WCI  11
PARSONS        LGT RAIN  44  43  96 W18G28    29.77R FOG
WICHITA INTL   CLOUDY    30  24  78 NW32G40   29.92R WCI  14
WICHITA JABRA  CLOUDY    29  29 100 NW24G45   29.90R WCI  15
WINFIELD       CLOUDY    32  27  81 NW31G39   29.91R WCI  17
$$

KSZ007>012-019>026-033>040-048>060-102>105-011500-
NORTHEAST KANSAS

CITY           SKY/WX    TMP DP  RH WIND       PRES   REMARKS
CONCORDIA      LGT SNOW  17  14  88 NW25G37   29.98R VSB 1   WCI  -1
EMPORIA        CLOUDY    34  32  92 NW22G29   29.79R WCI  22
LAWRENCE       CLOUDY    33  32  96 NW9       29.75R FOG
MANHATTAN      LGT SNOW  29  26  89 N17G28    29.87R VSB 1   WCI  17
OLATHE IND     LGT RAIN  37  36  96 NW12      29.73R FOG     WCI  29
OLATHE EXE     LGT RAIN  38  38 100 NW10      29.70R FOG     WCI  31
SALINA         LGT SNOW  24  18  77 NW33G43   29.98R WCI   6
TOPEKA BILLARD FLURRIES  34  32  92 W10       29.78R WCI  26
TOPEKA FORBES  LGT SNOW  34  32  92 NW16      29.76R FOG     WCI  24
$$


USA.gov is the U.S. government's official web portal to all federal, state and local government web resources and services.